User: anonymous
Location: Muenchen
(48.1800°N, 11.5800°E)
Time: 00:30:45
(UTC+02:00)
Language:

Tiros 1 - Orbit

View from above orbital plane
View from above orbital plane
View from above satellite
View from above satellite

Ground track
Ground track

The orbit data is extracted from the following two-line orbital elements,

1 00029U 60002B   14212.79653939  .00000246  00000-0  69118-4 0  2837
2 00029 048.3805 359.7371 0023904 047.9987 312.2955 14.73256950901816
Epoch (UTC): 31 July 2014 19:07:01
Eccentricity: 0.0023904
inclination: 48.3805°
perigee height: 634 km
apogee height: 667 km
right ascension of ascending node: 359.7371°
argument of perigee: 47.9987°
revolutions per day: 14.73256950
mean anomaly at epoch: 312.2955°
orbit number at epoch: 90181

The dashed part of the orbit path shows where the satellite is in the earth's shadow,  

DLR